CDT,Max TemperatureF,Mean TemperatureF,Min TemperatureF,Max Dew PointF,MeanDew PointF,Min DewpointF,Max Humidity, Mean Humidity, Min Humidity, Max Sea Level PressureIn, Mean Sea Level PressureIn, Min Sea Level PressureIn, Max VisibilityMiles, Mean VisibilityMiles, Min VisibilityMiles, Max Wind SpeedMPH, Mean Wind SpeedMPH, Max Gust SpeedMPH,PrecipitationIn, CloudCover, Events, WindDirDegrees
2013-5-1,81,70,58,71,57,48,100,62,45,30.08,29.95,29.85,10,10,1,38,8,59,0.00,2,Thunderstorm,148
2013-5-2,57,46,35,57,44,36,100,99,93,30.36,30.26,30.08,10,7,2,17,11,28,0.00,8,Thunderstorm,360
2013-5-3,45,40,35,40,35,31,100,80,57,30.31,30.10,29.93,10,9,2,18,11,24,0.01,7,,347
2013-5-4,48,42,35,41,38,36,100,85,66,30.03,29.92,29.85,10,8,2,12,7,16,0.00,7,,4
2013-5-5,58,49,40,53,49,41,100,92,75,30.10,30.06,30.02,10,8,2,10,4,,0.00,8,,335
2013-5-6,63,56,50,59,54,51,100,93,67,30.12,30.07,30.04,10,6,1,9,5,,0.01,6,,354
2013-5-7,76,60,43,62,55,49,100,64,38,30.10,30.04,29.99,10,7,0,7,1,,0.00,2,,189
2013-5-8,76,66,56,64,59,52,100,81,60,30.08,29.97,29.88,10,9,4,22,4,32,0.00,2,,168
2013-5-9,75,68,60,68,64,58,100,83,64,29.96,29.92,29.88,10,10,10,14,7,20,0.00,4,Thunderstorm,238
2013-5-10,64,58,51,61,55,51,100,81,65,30.07,30.00,29.92,10,8,1,12,4,17,0.01,5,Thunderstorm,350
2013-5-11,70,58,45,58,44,32,100,52,28,30.24,30.14,30.07,10,9,2,18,3,25,0.00,0,,351
2013-5-12,63,51,39,51,37,28,100,57,30,30.30,30.23,30.16,10,10,5,10,3,,0.00,1,,300
2013-5-13,76,63,50,58,51,42,99,66,45,30.16,30.09,29.99,10,10,10,15,4,18,0.00,0,,185
2013-5-14,86,74,63,60,55,51,70,51,35,30.00,29.96,29.90,10,10,10,22,11,29,0.00,0,,217
2013-5-15,78,70,63,69,61,52,100,70,52,29.96,29.92,29.86,10,10,7,18,13,25,0.00,2,,200
2013-5-16,71,66,61,71,66,62,100,91,73,29.90,29.87,29.83,10,8,2,10,4,,0.00,5,,127
2013-5-17,78,69,60,71,64,60,100,72,53,29.94,29.90,29.86,10,7,0,7,1,,0.00,4,,166
2013-5-18,83,73,63,76,71,64,100,88,69,29.92,29.85,29.75,10,8,5,14,6,18,0.00,2,,156
2013-5-19,84,74,63,76,67,58,100,73,54,29.85,29.72,29.61,10,10,5,21,10,34,0.11,2,Thunderstorm,186
2013-5-20,76,68,61,76,72,63,100,98,93,29.79,29.74,29.68,10,9,1,22,8,51,0.20,5,Thunderstorm,179
2013-5-21,70,65,60,63,60,55,100,88,67,29.84,29.78,29.70,10,9,4,10,4,17,0.01,2,,247
2013-5-22,71,64,58,63,56,52,100,71,54,29.95,29.85,29.77,10,10,10,10,5,17,0.00,3,,264
2013-5-23,71,63,55,58,56,49,100,72,58,30.19,30.08,29.95,10,10,5,14,5,20,0.01,0,,36
2013-5-24,76,66,55,58,55,48,100,70,52,30.29,30.22,30.15,10,10,10,17,9,24,0.00,0,,115
2013-5-25,81,70,60,68,60,51,91,68,52,30.20,30.13,30.04,10,10,10,16,9,23,0.00,1,Thunderstorm,184
2013-5-26,81,74,68,74,69,64,100,80,59,30.09,30.03,29.95,10,10,7,20,9,28,0.00,2,,190
2013-5-27,,,,,,,,,,,,,,,,,,,0.00,,,-1
2013-5-28,81,78,76,70,67,65,82,72,58,29.84,29.78,29.75,10,10,10,25,16,33,0.00,4,,203
2013-5-29,80,72,63,67,65,62,100,69,61,29.84,29.80,29.71,10,10,5,26,13,36,0.13,3,Thunderstorm,189
2013-5-30,77,70,63,75,70,65,100,98,81,29.81,29.74,29.68,10,8,1,26,10,41,0.75,5,Thunderstorm,183
2013-5-31,82,74,65,78,74,68,100,94,75,29.84,29.73,29.67,10,9,3,22,9,31,0.06,5,Thunderstorm,190